Location: Central Falls
(41.8900°N, 71.3929°W)
Time: 15:26:10
(UTC+00:00)

Vanguard 2 Rocket - Pass Details

Date: 08 December 2023
Orbit: 554 x 3310 km, 32.9° (Epoch: 22 February)

Event Time Altitude Azimuth Distance (km) Brightness Sun altitude
Rises 23:10:52 0° 277° (W) 7,084 12.7 -21.0°
Reaches altitude 10° 23:15:42 10° 273° (W) 6,199 12.2 -21.8°
Maximum altitude 23:34:17 47° 208° (SSW) 3,772 10.1 -25.2°
Drops below altitude 10° 23:49:16 10° 141° (SE) 5,061 10.4 -28.0°
Enters shadow 23:50:28 - 138° (SE) 5,286 10.5 -28.2°
